Location: Haulchin
(50.3172°N, 3.4360°E)
Time: 10:26:26
(UTC+00:00)

Cosmos 1733 Rocket - Pass Details

Date: 23 May 2024
Orbit: 600 x 624 km, 82.5° (Epoch: 14 June)

Event Time Altitude Azimuth Distance (km) Brightness Sun altitude
Rises 00:23:54 0° 349° (NNW) 2,866 7.8 -18.5°
Reaches altitude 10° 00:26:07 10° 348° (NNW) 1,960 6.7 -18.4°
Maximum altitude 00:30:27 82° 261° (W) 618 2.9 -18.3°
Enters shadow 00:31:59 40° 179° (S) 904 3.4 -18.2°
